Other Public Products
Issued by NWS Grand Forks, ND

Home | Current Version | Previous Version | Text Only | Print | Product List | Glossary On
Versions: 1 2 3 4 5 6 7 8 9 10 11 12 13 14 15 16 17 18 19 20 21 22 23 24 25 26 27 28 29 30 31 32 33 34 35 36 37 38 39 40 41 42 43 44 45 46 47 48 49 50
000
FPUS83 KFGF 241031
OPUFGF
PRAIRIE TO PINES WEATHER ROUNDUP
NATIONAL WEATHER SERVICE EASTERN NORTH DAKOTA/GRAND FORKS ND
500 AM CDT THU JUL 24 2014

 **SATELLITE DATA USED TO AUGMENT SKY COVER AT AUTOMATED STATIONS**
 *****  WEATHER ACROSS EASTERN NORTH DAKOTA  *****

CITY           SKY/WX    TMP DP  RH WIND       PRES   REMARKS
GRAND FORKS    MOCLDY    60  57  89 SE5       30.10F
GRAND FORKS AF MOCLDY    59  59  99 SE5       30.11F
GRAND CITY NWS   N/A     59 N/A N/A SE6         N/A
BUXTON           N/A     60  60  99 SE3         N/A
DEVILS LAKE    MOCLDY    64  55  72 SE15G21   30.07S
FARGO          MOCLDY    62  58  86 SE6       30.11F
WAHPETON ARPT  PTSUNNY   59  54  82 SE6       30.13S
$$

 *****  WEATHER ACROSS CENTRAL AND WESTERN NORTH DAKOTA  *****

CITY           SKY/WX    TMP DP  RH WIND       PRES   REMARKS
JAMESTOWN      PTCLDY    62  58  86 SE9       30.08F
BISMARCK       MOCLDY    66  57  72 SE13      29.98F
MINOT          MOCLDY    63  60  90 E12       29.97F
MINOT AFB      MOCLDY    63  63  99 SE15      29.96F
GARRISON         N/A     65  58  78 SE10      29.96F
WILLISTON      MOCLDY    70  56  61 SE15G23   29.82F
DICKINSON      CLEAR     63  56  78 SE18      29.87F
HETTINGER      MOCLDY    65  56  72 SE20G28   29.90F
$$

 *****  OTHER OBSERVATIONS NORTHEAST NORTH DAKOTA  *****

CITY           SKY/WX    TMP DP  RH WIND       PRES   REMARKS
WALHALLA         N/A     54  54 100 S3          N/A
LANGDON        FAIR      55  50  82 SE7       30.10F
CAVALIER       FAIR      55  54  94 CALM      30.10F
GRAFTON        FAIR      54  54 100 CALM      30.10F
CANDO          PTSUNNY   57  57 100 SE8       30.08S
FORT TOTTEN      N/A     61  58  89 SE7       29.95
ROLLA          FAIR      55  55 100 SE9       30.07F
RUGBY          FAIR      63  59  88 SE16G22   30.03F
 ***** THE ABOVE OBSERVATIONS ARE NON NWS ARE NOT QUALITY
        CONTROLLED AND MAY MIS-REPORT RAIN FOR SNOW...
$$

 *****  OTHER OBSERVATIONS SOUTHEAST NORTH DAKOTA *****

CITY           SKY/WX    TMP DP  RH WIND       PRES   REMARKS
COOPERSTOWN    NOT AVBL
VALLEY CITY    FAIR      61  61 100 SE7       30.10F
OAKES          NOT AVBL
GWINNER        SUNNY     63  63 100 SE7       30.11F
SHEYENNE NWR     N/A     56  55  98 SE2       29.95
BUFFALO        NOT AVBL
WYNDMERE       NOT AVBL
 ***** THE ABOVE OBSERVATIONS ARE NON NWS ARE NOT QUALITY
       CONTROLLED AND MAY MIS-REPORT RAIN FOR SNOW...
$$

  *****  WEATHER ACROSS NORTHERN MINNESOTA  *****

CITY           SKY/WX    TMP DP  RH WIND       PRES   REMARKS
FLAG ISLAND    MOCLDY    64  55  72 S3        30.14S
WARROAD        PTCLDY    50  46  87 CALM      30.15F
ROSEAU         CLEAR     48  45  87 CALM      30.14F
HALLOCK        PTCLDY    57  52  82 SE6       30.11F
THF RVR FALLS  PTCLDY    55  52  88 E6        30.13F
HALSTAD          N/A     58  55  92 SE3         N/A
FOSSTON        PTCLDY    54  48  82 CALM      30.15S
BAUDETTE       PTCLDY    53  52  96 CALM      30.17S
WASKISH        CLEAR     52  50  93 CALM      30.16S
CROOKSTON      MOCLDY    57  55  94 SE5       30.12
$$
  *****  WEATHER ACROSS CENTRAL AND WEST MINNESOTA  *****

CITY           SKY/WX    TMP DP  RH WIND       PRES   REMARKS
BEMIDJI        CLEAR     51  49  94 CALM      30.16S
PARK RAPIDS    PTCLDY    53  51  93 CALM      30.17S
WADENA         PTCLDY    52  52 100 CALM      30.16S
DETROIT LAKES  PTCLDY    61  55  82 SE3       30.16F
MOORHEAD       MOCLDY    63  63 100 CALM      30.12F
FERGUS FALLS   MOCLDY    63  54  72 E7        30.13F
ELBOW LAKE     FAIR      63  56  80 SE8       30.14F
MORRIS MN      PTCLDY    55  55 100 SE5       30.13F
STAPLES        PTCLDY    52  52 100 CALM      30.16F
WHEATON        MOCLDY    55  54  94 SE7       30.14F
$$
  *****  WEATHER ELSEWHERE ACROSS MINNESOTA  *****

CITY           SKY/WX    TMP DP  RH WIND       PRES   REMARKS
DULUTH         CLOUDY    57  51  80 CALM      30.19S
INTRNTL FALLS  PTCLDY    47  45  93 CALM      30.17F
ELY            NOT AVBL
CLOQUET        MOCLDY    55  52  88 CALM      30.18F
BRAINERD       PTCLDY    51  51 100 CALM      30.17F FOG
HIBBING        CLEAR     45  43  93 CALM      30.18F
ALEXANDRIA     PTCLDY    59  56  89 SE5       30.17F
SAINT CLOUD    CLEAR     54  51  90 CALM      30.16F
MINNEAPOLIS    PTCLDY    65  57  75 E5        30.16S
$$

  *****  WEATHER ACROSS SOUTH DAKOTA  *****

CITY           SKY/WX    TMP DP  RH WIND       PRES   REMARKS
SIOUX FALLS    MOCLDY    65  56  72 SE9       30.13F
BROOKINGS      NOT AVBL
WATERTOWN      PTCLDY    61  53  75 SE5       30.13F
HURON          MOCLDY    64  54  69 SE10      30.06F THUNDER
SISSETON         N/A     57  56  96 SE5       30.11F
ABERDEEN       MOCLDY    59  56  89 SE6       30.08F
MITCHELL       MOCLDY    66  59  78 SE10      30.06F
PIERRE         CLOUDY    70  59  68 SE24      29.97F
MOBRIDGE       PTCLDY    68  58  70 SE20G25   29.95F
RAPID CITY     CLOUDY    65  63  93 SE7       29.92F
$$

  *****  SOME WEATHER IN NEARBY STATES *****

CITY           SKY/WX    TMP DP  RH WIND       PRES   REMARKS
GLASGOW MT     MOCLDY    68  63  84 NE12      29.84R
GREAT FALLS MT CLEAR     61  53  75 NW14G28   29.88R
CHEYENNE WY    MOCLDY    62  48  60 SW12      30.19S
SCOTTSBLUFF NE PTCLDY    67  64  90 E12       30.02F
OMAHA NE       PTCLDY    68  59  73 SE7       30.13F
DES MOINES IA  CLEAR     66  59  78 CALM      30.14F
DAVENPORT IA   CLEAR     55  52  89 CALM      30.18R
CHICAGO IL     CLEAR     57  50  77 N7        30.14R
EAU CLAIRE WI  MOCLDY    56  55  97 CALM      30.18R
LA CROSSE WI   CLEAR     60  57  89 E8        30.17R
$$

  *****  SOME NATIONAL WEATHER *****

CITY           SKY/WX    TMP DP  RH WIND       PRES   REMARKS
LA GUARDIA NY  MOCLDY    73  64  73 NW8       29.81S
RALEIGH NC     PTCLDY    73  72  94 SW6       29.90R
ATLANTA GA     PTCLDY    72  69  90 W3        29.99R
NEW ORLEANS LA PTCLDY    75  72  90 S3        29.96R
OKLAHOMA CITY  PTCLDY    73  65  75 NE3       30.06S
ALBUQUERQUE NM PTCLDY    73  53  49 N5        30.30F
SALT LAKE CITY MOCLDY    85  44  23 S14       29.96R
LOS ANGELES CA CLEAR     68  62  81 CALM      29.87F
BOISE ID       CLEAR     63  48  58 NW7       30.06R
SEATTLE WA     CLOUDY    57  51  80 S10       30.07S
$$

*** WEATHER ACROSS MANITOBA...SASKATCHEWAN AND ONTARIO ***
                ***ONTARIO***

CITY           SKY/WX    TMP DP  RH WIND       PRES   REMARKS
GERALDTON      PTCLDY    54  50  87 W6        30.07R
THUNDER BAY    PTCLDY    48  46  93 W5        30.15S
SIOUX LOOKOUT  CLEAR     45  45 100 CALM      30.15S
TORONTO        PTCLDY    57  48  72 N10       30.06R
BIG TROUT LK   MOCLDY    48  46  93 W2        30.00S
PICKLE LAKE    NOT AVBL
DRYDEN         CLEAR     52  50  93 W6        30.16S
KENORA         PTCLDY    52  48  87 N5        30.17F
$$
                *** MANITOBA***

CITY           SKY/WX    TMP DP  RH WIND       PRES   REMARKS
BRANDON        CLOUDY    59  54  82 E9        30.07F
DAUPHIN        PTCLDY    55  52  88 N3        30.05F
ISLAND LAKE    PTCLDY    63  52  67 W8        30.05
PILOT MOUND      N/A     55  52  88 SE8         N/A
THE PAS        PTCLDY    59  54  82 S2        30.02F
THOMPSON       PTCLDY    50  48  93 W5        30.01F
WINNIPEG       PTCLDY    55  52  88 SE6       30.12
LYNN LAKE      CLEAR     54  50  87 SW5       30.01F
CHURCHILL      MOCLDY    55  54  94 W6        29.95F
GILLAM         PTCLDY    48  48 100 SW3       29.96F
$$
                ***SASKATCHEWAN***

CITY           SKY/WX    TMP DP  RH WIND       PRES   REMARKS
ESTEVAN        CLOUDY    63  61  94 SE12      29.93F
KINDERSLEY     TSTM      63  59  88 SW18G26   29.91R
LLOYDMINSTER   MOCLDY    63  61  94 SE12G17   29.79F
PRINCE ALBERT  MOCLDY    61  57  88 SE6       29.92S
REGINA         MOCLDY    63  61  94 SE15G21   29.90S


USA.gov is the U.S. government's official web portal to all federal, state and local government web resources and services.